FENGYUN 1C DEB, 30076

Orbit data source: Space-Track

FENGYUN 1C DEB, 30076 is space debris in SSO originally from a launch on Mon, 10 May 1999 UTC launched from the Taiyaun Space Center, China (TSC). Fengyun 1C debris stems from the Chinese weather satellite Fengyun-1C, which was intentionally destroyed by a Chinese anti-satellite missile in 2007. This event dramatically increased the amount of space debris, with thousands of trackable fragments posing hazards to satellites and human spaceflight. The Fengyun 1C debris cloud has become a focal point in discussions about space sustainability and the need for international regulations to prevent the creation of new debris.

Loading next visibility...
Identifier
30076, 1999-025QD
Orbit
SSO
Country
Flag of CNCN / PRC
Related business
Manufacturer
Unknown
Mission
Spacecraft
Bus & Motor
Unknown
Mass
Unknown
Launch date (UTC)
1999-05-10 (27 years ago)
Launch vehicle
Unknown
Launch site
Taiyaun Space Center, China (TSC)
Object type
Payload
Rocket body
Debris
Shape & HBR
Unknown shape, 0.1 m
Radar Cross Section
Medium (>0.1 m² and <1 m²)

Expand to show TLE details & history
Last TLE update: 9 hours ago

TLE from 9 hours ago
0 FENGYUN 1C DEB
1 30076U 99025QD  26236.41444743  .00000201  00000-0  22219-3 0  9993
2 30076  99.2609 221.0696 0175192 142.2913  13.2211 13.76451451983979
Epoch: 2026-08-24T09:56Z
TLE epoch observation values (Epoch: 2026-08-24T09:56:48.257Z)
Latitude
23.71°
Longitude
-76.74326°
Altitude
853.966 km
Speed
7.491 km/s
True Right ascension
03h 00m 37s
True Declination
23° 35' 07"
Sunlit
Object was in daylight at epoch
Visualization orbit readout
Latitude
Unknown
Longitude
Unknown
Altitude
Unknown
Speed
Unknown
Apparent Right ascension
Unknown
Apparent Declination
Unknown
Sunlit
N/A
Visualization observer readout
Local Sidereal Time
09:57:42
Azimuth
Unknown
Elevation
Unknown
Doppler factor
Unknown
Orbital elements
Apogee altitude
1,102.542 km
Perigee altitude
844.943 km
Semi-major axis
7,351.88 km
Eccentricity
0.01752
Inclination
99.2609°
RAAN
221.0696°
Arg. of periapsis
142.2913°
True anomaly
13.69023°
Mean anomaly
13.2211°
Eccentric anomaly
13.45465°
Mean motion
3.44307 °/min
Orbital period
104.56 mins
BSTAR
0.00022219
Loading maneuver chart data...
Computing Atmospheric mass density...

Documentation

Showing up to 5 results
|